STARLINK-30121, 56695

Orbit data source: Space-Track

STARLINK-30121, 56695 is a payload satellite owned by SpaceX/Seattle (US) in LEO that was launched on Fri, 19 May 2023 UTC via an FALCON 9 launch vehicle from the Air Force Eastern Test Range (AFETR). Payload-class satellites include a variety of spacecraft equipped with specific instruments for various scientific and technological missions. These include communications satellites like Starlink; space stations such as the ISS; scientific satellites like the Hubble; Earth observation satellites from companies like Planet Labs, Umbra, and HawkEye 360; GPS; miniature CubeSats for education and research; and military/defense satellites.

Loading next visibility...
Identifier
56695, 2023-067H
Orbit
LEO
Country
Flag of USUS
Related business
Manufacturer
SpaceX/Seattle
Mission
Operational Commercial Communications
Bus & Motor
STARLINK V2M, Unknown motor
Mass
730 kg wet, ~700 kg dry
Launch date (UTC)
2023-05-19 (3 years ago)
Launch vehicle
FALCON 9
Launch site
Air Force Eastern Test Range (AFETR)
Object type
Payload
Rocket body
Debris
Shape & HBR
Box + 2 Pan, 17.7 m
Radar Cross Section
33.884 m², Large (>1 m²)

Expand to show TLE details & history
Last TLE update: 2 days ago

TLE from 2 days ago
0 STARLINK-30121
1 56695U 23067H   26171.11447609 -.00000782  00000-0 -18907-4 0  9996
2 56695  43.0014  62.8999 0001307 263.8548  96.2155 15.27589021171248
Epoch: 2026-06-20T02:44Z
TLE epoch observation values (Epoch: 2026-06-20T02:44:50.734Z)
Latitude
0.00001°
Longitude
113.35478°
Altitude
482.895 km
Speed
7.626 km/s
True Right ascension
04h 11m 35s
True Declination
0° 00' 00"
Sunlit
Object was in daylight at epoch
Visualization orbit readout
Latitude
Unknown
Longitude
Unknown
Altitude
Unknown
Speed
Unknown
Apparent Right ascension
Unknown
Apparent Declination
Unknown
Sunlit
N/A
Visualization observer readout
Local Sidereal Time
21:31:57
Azimuth
Unknown
Elevation
Unknown
Doppler factor
Unknown
Orbital elements
Apogee altitude
485.864 km
Perigee altitude
484.07 km
Semi-major axis
6,863.104 km
Eccentricity
0.00013
Inclination
43.0014°
RAAN
62.8999°
Arg. of periapsis
263.8548°
True anomaly
96.23039°
Mean anomaly
96.2155°
Eccentric anomaly
96.22294°
Mean motion
3.81735 °/min
Orbital period
94.31 mins
BSTAR
-0.000018907
Loading maneuver chart data...
Computing Atmospheric mass density...
Loading historical data...
Loading historical data...
Loading historical data...
Loading historical data...
Loading historical data...
Loading historical data...
Loading historical data...

Documentation

Showing up to 5 results
|